Regional Weather Roundup
Issued by NWS Bismarck, ND

Home | Current Version | Previous Version | Text Only | Print | Product List | Glossary On
Versions: 1 2 3 4 5 6 7 8 9 10 11 12 13 14 15 16 17 18 19 20 21 22 23 24 25 26 27 28 29 30 31 32 33 34 35 36 37 38 39 40 41 42 43 44 45 46 47 48 49 50
000
ASUS43 KBIS 231710
RWRBIS

NWR BROADCAST TEXT
NATIONAL WEATHER SERVICE BISMARCK ND
1200 PM CDT SAT JUL 23 2016

NOTE: "FAIR" INDICATES FEW OR NO CLOUDS BELOW 12,000 FEET WITH NO
SIGNIFICANT WEATHER AND/OR OBSTRUCTIONS TO VISIBILITY.


CITY           SKY/WX    TMP DP  RH WIND       PRES   REMARKS
WILLISTON      SUNNY     79  51  37 W21G29    29.83F
MINOT          CLOUDY    71  65  81 NW6       29.79S
MINOT AFB      CLOUDY    69  64  85 NW8       29.79S
BISMARCK       CLOUDY    72  66  81 E5        29.77F
DICKINSON      MOSUNNY   75  57  53 NW18G30   29.86R
GARRISON         N/A     69  66  90 W8        29.81R
HETTINGER ARPT SUNNY     80  56  43 NW28G36   29.88R
JAMESTOWN      CLOUDY    65  64  97 NE8       29.76F
BEACH          FAIR      77  45  31 W26G35    29.95S
CARRINGTON     FAIR      66  64  94 E14G20    29.79R
HAZEN          CLOUDY    68  63  83 NW6       29.83R
LINTON         CLOUDY    73  73 100 N7        29.79R
MANDAN         PTSUNNY   73  66  78 E6        29.79R
OAKES            N/A    N/A N/A N/A MISG        N/A
STANLEY        PTSUNNY   73  68  83 SW13G18   29.85F
WATFORD CITY     N/A    N/A N/A N/A MISG        N/A
$$

CITY           SKY/WX    TMP DP  RH WIND       PRES   REMARKS
GRAND FORKS    TSTM      67  63  87 N14       29.78R
GRAND FORKS AF LGT RAIN  66  64  94 NW13      29.85R
DEVILS LAKE    CLOUDY    66  63  90 E14       29.72F
FARGO          CLOUDY    80  70  71 SE12      29.71S
CAVALIER       LGT RAIN  64  64 100 MISG      29.83F
GRAFTON        LGT RAIN  64  64 100 N10       29.83F
GWINNER        CLOUDY    79  72  78 SW9       29.74R
LANGDON        PTSUNNY   64  64 100 E13       29.72F FOG
ROLLA            N/A     72  64  78 E5        29.77F
WALHALLA       FAIR      64  64 100 SE18      29.75F
$$

CITY           SKY/WX    TMP DP  RH WIND       PRES   REMARKS
ABERDEEN       CLOUDY    81  70  69 S12       29.71S
MOBRIDGE       PTSUNNY   85  74  69 NW9       29.70F HX  92
BUFFALO          N/A     81  42  25 NW33G41   29.85S
RAPID CITY     SUNNY     85  46  25 NW35G45   29.93R
GLASGOW        SUNNY     75  48  38 W26G33    29.87S
SIDNEY         SUNNY     78  48  34 W21G26    29.86F
WOLF POINT     SUNNY     78  46  32 W23G30    29.87S
GLENDIVE       SUNNY     78  47  33 NW22G30   29.91F
MILES CITY     SUNNY     80  39  23 W18G26    29.95S
BAKER          SUNNY     78  46  32 NW21G30   29.95R
$$

CITY           SKY/WX    TMP DP  RH WIND       PRES   REMARKS
BILLINGS       MOSUNNY   78  37  22 W18       30.05S
GREAT FALLS    CLOUDY    74  40  29 NW15G23   30.08F
REGINA         PTSUNNY   68  61  77 W20       29.72R
ESTEVAN        MOSUNNY   73  57  56 W16G24    29.79R
$$





USA.gov is the U.S. government's official web portal to all federal, state and local government web resources and services.